Theta_e
316 319 319 321 323 325 327 328 327 324 322 318 316 318 321 324 322 322 321 321 325 325 326 328 328 328 329 328 329 337 336 339 342 341 344 342 338 339 338 338 340 339 339 337 337 337 336 331 321 319 322 327 331 332 333 332 332 334 334 335 337 338 339 338 338 337 337 337 337 336 335 333 332 333 335 333 333 333 333 331 330 331 332 332 331 331 331 330 330 331 331 332 332 332 331 330 329
318 323 323 323 324 327 329 328 325 321 318 314 317 319 320 321 322 322 322 323 324 324 327 329 327 326 326 325 326 335 338 337 339 341 341 339 339 339 339 339 340 340 338 338 338 337 335 327 319 319 321 325 329 332 333 332 332 333 334 336 337 337 338 338 337 336 336 336 336 336 335 333 332 333 334 333 333 333 333 332 331 331 331 331 331 331 331 331 330 330 330 330 330 330 330 329 328
318 322 325 324 324 326 328 326 322 319 315 314 317 320 320 321 323 324 325 325 324 325 328 328 327 326 325 326 326 337 340 336 337 338 338 339 339 339 339 340 341 340 340 339 339 337 332 323 319 318 319 324 329 332 332 332 332 332 334 335 335 336 337 337 337 335 334 335 335 335 334 333 332 332 332 331 332 333 333 332 331 331 330 330 331 331 331 331 331 330 330 329 329 329 329 329 328
316 321 323 324 328 327 327 327 325 321 315 314 315 320 322 322 325 325 326 327 326 327 326 325 327 327 325 327 328 337 339 336 338 338 339 339 338 339 339 340 341 341 340 340 340 336 328 321 319 317 318 323 329 332 333 332 332 333 335 334 333 335 336 336 336 334 332 332 332 333 333 332 331 331 331 331 332 332 331 331 331 331 331 331 331 331 331 331 331 330 330 329 329 328 328 328 328
318 322 322 322 329 328 326 326 326 322 316 315 315 319 322 323 326 323 325 326 326 326 324 325 327 325 324 328 331 337 338 336 336 338 338 338 339 339 339 340 341 341 340 340 340 334 325 322 320 318 318 319 326 331 333 333 333 333 334 333 329 333 335 335 335 333 332 331 331 333 333 332 331 331 331 331 332 331 331 331 331 330 331 330 330 330 331 330 330 329 329 329 328 329 328 328 329
322 324 322 321 327 326 325 322 322 320 318 320 317 319 323 323 324 322 324 324 324 326 324 326 325 325 327 330 334 336 338 336 336 339 338 338 339 339 339 340 341 341 341 340 339 333 326 323 320 320 319 318 321 327 331 332 332 332 333 332 328 331 335 334 335 334 332 330 331 332 332 331 330 330 330 330 331 331 332 332 331 331 330 331 331 330 330 330 330 329 329 329 328 329 328 328 328
323 325 325 323 325 325 325 322 321 319 318 321 319 320 323 322 323 322 324 322 323 323 323 327 322 325 329 330 335 336 337 337 338 340 337 338 339 338 339 339 340 341 341 341 338 333 326 323 322 321 320 318 318 322 327 330 331 332 333 334 331 332 334 335 335 334 332 329 329 331 331 330 330 330 329 329 330 332 332 331 331 330 329 329 330 330 330 330 331 330 328 328 328 328 328 327 327
322 326 328 326 327 325 324 324 323 321 319 320 320 322 322 323 323 322 322 321 322 322 322 326 323 324 325 330 337 335 337 339 340 339 337 338 338 338 338 338 339 340 341 341 338 333 327 324 324 322 321 319 317 318 324 329 331 333 334 334 332 332 333 334 335 334 332 329 328 330 330 330 329 329 329 329 331 333 332 331 330 329 329 329 329 329 330 330 330 329 328 327 328 328 327 326 326
321 326 327 327 329 324 322 324 322 320 320 319 320 322 322 323 321 321 321 320 321 322 323 323 323 322 322 333 338 335 336 339 339 339 337 337 338 337 337 338 339 340 341 341 337 334 329 326 324 323 323 321 318 317 325 330 330 333 334 334 333 331 333 334 334 333 331 328 327 329 330 329 330 330 329 329 331 332 331 331 331 329 328 329 329 329 329 329 329 328 327 327 327 325 325 325 326
322 323 325 326 326 322 319 322 322 321 320 320 320 321 322 322 321 321 320 320 320 321 323 322 322 320 322 335 339 336 336 338 338 338 338 337 337 337 337 338 339 341 342 340 337 335 332 328 325 324 324 322 319 317 323 327 329 333 333 333 332 331 332 333 334 332 331 329 326 327 329 329 329 329 328 328 330 330 331 331 330 329 328 329 330 329 329 328 327 327 327 327 326 324 324 325 325
324 322 325 325 321 320 318 319 321 322 320 320 320 320 321 321 321 321 320 319 320 323 323 321 321 319 322 336 339 336 335 337 338 338 338 337 337 337 337 338 340 341 341 340 337 336 334 329 326 325 324 324 321 319 319 321 327 331 330 330 330 330 329 330 332 332 331 329 325 325 329 330 329 328 327 327 329 329 330 330 330 329 327 327 328 328 327 327 326 327 327 326 326 325 324 324 325
328 325 325 324 321 321 321 320 321 321 320 319 320 319 320 321 321 321 320 318 319 322 322 321 321 318 321 336 340 336 336 337 337 337 337 337 337 337 337 338 340 341 341 340 338 337 336 332 328 326 325 325 323 321 318 318 324 326 326 328 328 329 328 328 329 329 329 329 326 324 328 330 328 327 327 328 329 329 329 329 329 328 327 327 326 326 326 327 326 326 326 326 326 325 324 324 325
328 329 325 323 324 324 323 322 321 322 320 319 320 319 320 320 321 322 319 318 318 320 320 320 320 318 326 338 340 336 335 337 337 337 336 337 336 337 336 337 339 341 341 341 340 338 337 334 332 329 326 325 325 324 321 319 320 319 323 326 325 326 327 327 327 327 327 329 327 325 326 328 328 327 327 327 327 329 329 329 329 328 328 328 327 326 325 326 326 326 326 326 326 325 325 324 325
328 331 326 325 327 325 324 322 321 320 318 320 320 319 321 320 320 321 319 318 318 320 320 319 319 319 328 337 339 337 336 336 336 336 336 336 336 336 336 337 339 340 340 341 341 340 338 336 335 332 328 326 325 326 324 321 319 317 321 325 324 322 322 323 324 325 326 328 328 326 325 325 327 326 326 326 325 327 328 328 329 328 328 327 326 324 324 326 326 326 326 325 325 325 325 325 325
329 330 327 327 326 324 324 323 322 320 319 321 320 319 320 319 320 320 319 318 318 320 319 320 321 320 327 334 337 337 336 336 336 336 336 336 336 336 336 337 339 340 340 340 341 340 340 339 338 334 331 329 326 326 326 324 322 319 320 323 322 319 318 318 318 321 325 328 327 327 326 325 326 325 326 326 325 326 327 328 328 328 327 326 326 322 323 326 325 326 325 325 325 324 325 324 324
327 328 327 325 323 322 322 323 322 320 321 321 319 319 320 318 319 318 317 317 318 318 318 321 319 322 334 338 336 336 336 337 336 336 336 336 336 336 336 337 338 339 339 339 340 341 340 340 339 336 335 334 331 330 327 326 325 321 319 320 319 319 319 317 316 316 322 327 327 326 325 324 324 324 324 325 326 324 325 327 328 328 328 327 325 322 323 325 325 325 324 324 324 324 324 324 323
324 327 326 322 322 322 321 322 321 320 320 320 319 319 319 318 318 317 316 317 318 317 319 321 320 326 338 340 337 337 336 336 336 336 336 336 336 336 337 337 338 339 338 339 339 340 340 340 340 338 337 337 336 335 332 327 326 325 322 320 319 319 319 319 318 317 319 323 323 322 323 323 323 323 323 321 324 324 322 325 327 327 326 326 324 321 322 323 322 322 322 323 324 324 324 323 323
324 327 325 321 322 322 321 321 320 321 321 319 319 318 318 318 317 317 316 317 317 317 319 321 323 328 336 339 337 337 336 336 336 336 336 336 336 335 336 336 338 339 339 339 338 339 340 340 340 339 339 338 337 337 336 331 327 327 325 323 321 319 319 319 320 318 318 318 319 324 327 328 326 327 326 319 321 323 321 324 326 326 324 324 322 320 321 320 319 320 321 323 323 324 324 323 323
324 326 323 323 324 322 320 319 318 319 319 318 319 319 319 318 317 317 317 317 316 317 317 319 325 326 332 338 337 336 337 336 337 336 336 336 335 335 336 336 337 338 338 339 338 338 339 339 340 340 339 339 338 337 338 335 329 328 328 327 324 322 319 318 321 321 321 319 320 329 330 329 328 328 326 320 320 321 320 322 323 323 322 322 320 320 320 318 318 320 321 321 323 324 325 325 324
323 324 323 324 322 319 318 317 317 318 318 318 319 319 319 318 317 316 316 317 315 316 317 317 324 325 330 337 337 336 337 336 336 336 336 335 335 335 335 335 336 337 338 338 338 338 338 339 339 339 340 339 339 338 338 336 333 331 331 330 327 326 322 320 326 326 327 325 323 330 330 328 328 328 327 319 316 317 318 321 320 319 318 318 319 319 319 318 319 320 320 320 323 325 325 325 324
322 324 323 323 320 318 317 316 316 317 318 318 318 319 318 317 316 316 315 317 316 316 317 315 320 325 329 335 336 335 336 336 336 336 336 335 335 334 335 335 335 336 336 337 337 338 337 338 338 338 339 339 339 338 338 337 335 334 334 334 330 330 327 324 330 329 329 329 325 329 330 328 326 329 327 315 315 318 316 318 318 318 317 316 318 319 319 318 319 319 319 320 323 324 324 324 324
321 321 320 320 319 318 316 314 316 317 318 318 318 318 317 317 316 316 315 317 316 314 316 316 319 325 329 334 336 334 335 335 336 336 336 335 335 335 335 334 335 335 335 336 337 337 337 338 338 338 338 338 339 338 338 337 336 334 334 335 332 332 331 329 331 330 330 330 326 328 331 328 325 329 326 316 322 325 320 317 316 320 322 320 321 323 322 320 321 321 320 321 324 324 324 324 323
320 320 318 319 318 317 315 314 316 317 317 318 318 317 316 316 316 316 316 316 316 314 315 317 322 327 328 333 334 334 335 335 336 336 336 336 335 335 335 335 335 335 335 335 336 336 337 337 337 337 338 338 339 338 337 337 336 335 334 335 333 332 332 331 331 330 330 330 326 327 331 328 325 329 327 321 325 328 325 322 321 324 326 323 323 325 325 323 323 323 321 321 324 324 323 323 320
319 319 318 318 316 315 315 314 315 316 316 316 316 317 316 316 316 316 317 316 316 315 314 317 323 327 329 332 333 334 335 335 335 336 337 337 336 336 336 336 336 336 336 335 335 336 336 337 337 337 338 337 338 337 337 337 336 335 334 334 334 333 333 332 331 331 331 331 328 327 330 328 326 328 328 324 325 327 326 326 325 326 326 324 324 324 325 325 323 323 323 323 324 323 321 319 317
317 318 317 316 315 314 313 313 314 314 315 315 316 317 316 316 315 315 316 316 316 316 316 318 322 326 330 332 333 334 335 335 336 336 337 337 337 336 336 336 337 337 336 336 335 335 335 336 337 337 337 337 337 337 337 337 336 336 335 335 334 333 333 332 331 331 330 331 330 329 329 328 327 327 328 326 325 326 326 326 326 325 324 323 323 322 324 325 322 321 323 323 323 321 320 319 318
317 317 317 316 314 313 313 313 314 314 314 314 316 316 316 315 314 316 316 316 316 316 318 320 321 324 328 330 332 334 334 335 336 336 337 337 337 337 337 337 337 337 336 337 336 335 335 335 336 336 337 337 337 337 336 337 337 336 336 335 333 332 332 332 331 331 331 331 331 330 329 328 328 328 328 327 326 325 326 326 325 324 323 322 322 321 321 322 320 320 322 321 321 321 321 321 320
317 317 317 316 314 314 314 314 313 315 315 314 317 316 315 315 315 317 316 316 316 315 318 320 320 321 323 326 329 330 332 334 335 336 336 337 337 337 337 338 338 338 337 337 337 336 336 335 336 336 336 337 337 337 336 337 337 336 336 335 334 333 332 332 332 331 331 331 330 331 330 328 328 328 328 328 327 326 326 326 325 324 323 323 323 321 320 320 319 320 321 320 321 321 321 321 321
317 317 316 315 315 315 315 315 314 315 315 314 316 317 315 315 315 316 316 315 315 315 317 319 320 320 321 324 327 327 329 332 334 335 335 336 337 337 337 338 338 338 337 337 337 336 336 335 335 336 336 336 337 337 337 336 336 336 336 336 335 334 333 332 332 332 331 331 330 331 331 329 329 328 329 328 327 327 326 326 326 324 323 323 323 321 320 319 318 318 320 319 319 320 321 321 321
317 316 316 315 315 315 315 315 315 316 315 314 315 315 316 316 317 317 316 315 315 315 317 319 319 318 320 323 326 328 327 330 333 333 335 336 336 337 337 338 338 337 337 337 337 336 336 336 335 335 336 336 336 337 337 337 336 336 336 336 336 335 334 333 332 331 331 331 330 330 331 330 329 329 328 328 328 327 327 327 326 325 324 324 323 322 321 320 319 317 317 316 315 316 317 318 319
316 316 316 316 316 315 316 316 315 316 315 315 315 315 316 317 317 316 315 315 315 316 316 319 319 318 320 323 327 329 327 328 332 333 334 336 336 337 337 337 337 336 337 337 337 337 336 336 335 335 335 336 336 336 336 337 336 336 336 336 335 335 335 335 333 332 331 331 331 331 330 330 330 329 329 328 328 328 327 326 327 326 325 325 324 323 323 322 321 319 316 316 315 314 312 311 314
316 315 316 318 316 315 316 316 315 315 314 315 315 315 317 317 316 315 315 315 315 316 316 318 319 317 320 326 329 330 328 327 331 333 333 335 335 335 335 336 336 336 336 336 337 337 336 336 335 335 335 335 336 335 335 336 336 336 336 336 335 334 335 335 334 333 332 331 331 331 331 330 329 329 329 329 329 328 327 327 326 326 326 326 325 325 325 324 323 322 320 319 319 318 316 313 312
315 315 315 318 317 315 317 315 315 316 314 314 314 314 316 316 315 314 314 315 314 315 316 316 318 318 320 325 327 328 328 328 330 332 333 333 334 334 335 335 335 336 335 335 336 337 336 336 335 335 334 335 336 335 335 336 336 335 336 336 336 335 335 334 334 334 333 332 331 331 331 330 329 329 329 329 329 329 328 327 326 327 327 326 327 327 327 326 326 325 322 321 321 320 319 318 316
315 316 315 317 316 315 316 315 315 316 315 314 315 315 315 315 314 313 313 314 314 314 315 315 316 318 319 321 323 324 326 328 330 330 332 333 333 333 333 333 334 335 334 334 335 336 336 335 335 335 334 335 335 335 335 334 335 335 336 336 335 335 335 335 333 333 333 333 333 332 331 330 330 329 328 328 329 329 328 328 327 327 327 327 327 327 327 326 326 325 324 322 321 320 319 319 318
314 315 315 317 315 315 316 316 317 317 315 314 315 315 315 315 315 314 314 314 314 314 314 315 316 317 318 319 320 320 322 327 329 328 330 332 332 333 333 332 333 334 334 334 334 335 336 336 335 335 335 334 334 335 334 334 333 334 336 336 335 335 335 335 334 333 333 333 333 333 332 332 331 330 329 329 329 329 329 329 329 329 328 328 327 327 327 326 325 324 324 322 321 320 320 319 318
314 315 314 315 314 314 316 315 316 317 316 315 316 315 315 315 315 314 314 314 314 314 314 315 315 316 318 318 318 318 319 322 325 326 328 330 332 333 334 334 333 334 334 334 335 335 335 335 335 334 334 334 334 334 334 334 333 333 334 335 335 335 335 334 334 334 333 332 332 332 332 332 331 331 331 330 329 328 329 329 329 328 328 328 327 327 327 326 325 324 323 323 322 321 321 320 319
316 317 315 315 314 313 315 315 315 316 315 316 316 315 314 315 315 315 314 315 315 315 316 316 316 317 318 318 319 319 320 319 319 323 326 328 330 332 334 334 334 335 335 335 335 335 335 335 335 334 334 335 334 334 334 334 333 332 333 334 334 334 334 334 334 334 334 333 333 332 332 332 332 331 331 330 329 328 329 329 328 328 328 328 328 327 327 326 325 324 323 322 322 321 321 321 319
316 316 315 318 318 314 314 315 314 315 315 315 316 316 316 316 316 316 315 315 316 316 316 317 318 318 318 318 320 320 321 320 317 319 323 326 329 331 333 333 333 335 335 335 335 336 336 335 335 335 333 333 334 334 334 334 333 333 333 333 333 333 334 334 334 333 333 333 332 333 333 333 332 332 331 330 328 327 328 329 329 328 328 328 328 328 327 327 325 324 323 323 322 321 321 320 319
316 316 315 317 319 315 314 315 314 314 315 315 316 315 315 315 316 317 317 315 315 316 316 317 317 318 320 320 321 321 323 326 322 319 321 324 328 329 330 331 331 332 334 334 334 334 335 335 335 336 334 333 333 334 333 333 333 332 332 332 332 332 332 333 333 333 332 332 332 332 332 333 333 333 332 330 328 327 328 329 329 328 328 328 328 329 328 327 326 324 324 323 323 322 321 320 319
316 318 317 316 318 316 314 314 314 314 314 315 317 317 316 316 316 316 317 316 315 317 317 317 317 317 318 318 321 321 325 332 328 320 319 319 323 326 328 329 329 329 330 331 332 333 334 334 334 335 335 334 333 333 333 332 332 332 332 332 332 332 332 332 333 332 332 331 331 331 331 331 332 332 332 331 329 329 330 330 329 329 329 329 329 328 328 327 326 325 325 324 323 322 321 320 319
317 318 316 316 318 316 315 314 314 313 313 314 317 317 316 315 316 316 316 317 316 317 319 319 320 320 318 321 324 323 326 331 328 322 318 316 317 319 321 325 327 328 328 329 329 330 332 332 333 334 335 334 333 332 332 332 332 331 331 331 332 332 332 332 333 332 332 331 331 330 331 331 330 330 330 330 330 330 330 330 330 330 329 329 328 327 326 325 325 325 324 324 323 322 321 321 321
318 320 318 319 319 318 318 315 313 313 314 315 315 314 317 315 314 315 315 316 316 318 321 322 324 325 323 325 328 326 327 330 328 324 320 315 315 315 315 316 320 324 326 327 327 328 329 330 331 332 333 334 333 332 332 332 332 332 331 331 331 331 331 331 332 333 333 332 332 332 332 332 331 330 330 329 329 329 330 330 329 329 329 328 327 326 326 325 326 326 325 324 323 322 322 322 321
316 321 320 319 319 319 319 317 315 315 316 318 315 315 322 321 314 314 314 316 317 318 322 322 323 325 324 325 325 325 325 325 324 323 319 316 315 315 314 313 313 316 319 322 325 326 327 328 329 331 331 332 332 332 332 332 332 332 331 331 331 330 330 330 330 331 332 332 332 332 332 332 332 331 331 330 330 330 331 330 330 329 328 328 328 327 327 326 326 326 325 324 324 323 322 321 320
313 322 323 319 321 323 322 320 319 317 317 318 316 316 321 321 316 316 317 317 317 318 321 320 319 320 322 322 321 321 322 323 323 320 318 316 315 314 314 313 313 312 313 316 321 324 326 327 328 329 330 330 331 332 331 331 332 332 331 331 330 329 329 328 328 328 329 330 330 330 330 330 330 329 329 329 329 329 329 329 329 329 329 329 329 328 327 327 326 325 324 324 324 324 323 321 320
316 325 327 322 324 325 325 323 320 318 318 317 317 316 317 320 320 318 318 316 315 317 319 319 317 317 320 320 321 323 324 326 326 324 320 316 314 314 313 313 313 313 312 312 315 320 323 325 326 327 328 329 330 330 330 330 331 330 330 330 329 329 327 327 327 327 327 328 328 327 327 327 327 327 327 328 329 329 329 329 329 329 329 329 329 328 327 327 327 326 325 325 324 324 323 322 321
321 326 325 323 324 325 324 323 319 318 318 318 319 317 316 320 321 317 317 315 315 316 317 318 316 318 321 321 323 324 323 323 322 321 320 315 312 312 313 313 313 313 312 312 312 315 318 320 323 326 326 327 328 328 329 329 329 329 328 328 328 327 327 326 327 327 327 327 326 326 326 326 326 326 326 327 327 328 328 328 328 328 328 328 328 328 327 327 327 326 325 325 324 324 323 322 322
322 323 323 325 326 325 322 322 321 317 319 322 322 318 316 320 320 315 316 315 316 316 315 317 318 321 323 322 323 322 322 322 319 317 316 315 315 314 314 315 314 314 313 312 311 311 313 315 319 323 324 324 325 326 327 327 327 326 326 326 327 326 326 325 326 327 326 326 325 325 325 325 325 325 325 325 325 325 326 326 326 326 327 327 327 328 327 327 326 326 326 325 324 324 323 322 322
323 323 323 323 322 322 320 320 319 318 322 324 322 318 315 319 320 317 316 316 316 316 316 320 321 321 322 321 321 320 321 323 321 318 316 315 315 315 314 315 314 313 312 312 311 310 310 312 316 319 320 322 322 322 324 324 324 325 325 325 325 325 325 325 325 325 325 325 324 323 322 322 322 322 323 323 323 322 323 323 324 324 324 324 325 325 326 325 325 325 325 325 324 324 324 323 322
323 323 321 322 320 318 318 318 317 319 323 320 319 320 318 318 319 315 315 315 315 316 317 320 320 320 321 321 320 319 320 321 321 321 318 314 313 314 315 315 314 314 313 313 312 311 311 312 314 317 319 321 321 320 322 323 323 324 325 324 325 324 324 324 324 323 323 322 321 320 320 319 319 319 320 320 319 318 318 318 319 320 320 321 321 322 322 322 323 323 323 323 323 323 323 323 322
322 322 319 322 321 318 318 319 319 320 320 315 314 318 319 318 316 313 314 313 314 317 319 320 320 321 322 321 320 320 319 320 321 322 321 317 314 314 315 316 315 316 316 315 314 313 314 315 316 318 320 321 321 320 322 323 322 324 324 324 324 324 324 323 323 322 322 321 321 320 320 320 319 319 319 318 318 318 317 316 316 317 317 318 318 318 319 320 320 321 321 321 321 321 322 322 322
320 319 319 322 321 317 317 320 320 319 317 314 313 316 318 318 314 314 315 312 315 320 321 321 320 320 322 321 321 321 320 321 323 323 323 321 316 315 316 316 317 317 318 318 318 317 317 318 319 320 320 321 321 321 322 322 322 323 323 322 322 322 322 322 321 321 321 321 321 320 320 320 319 319 318 318 318 318 317 317 316 316 315 315 315 315 316 317 317 317 317 317 317 317 318 319 319
318 319 320 321 319 319 319 319 322 324 318 313 312 316 320 319 316 316 315 314 316 318 318 320 319 320 321 320 320 321 321 321 323 322 322 319 315 315 316 316 316 317 317 319 320 320 319 319 318 318 318 319 319 320 320 320 320 320 320 320 321 320 320 320 320 320 320 320 320 319 318 318 317 317 317 317 317 317 316 316 316 315 315 315 314 313 313 313 313 314 314 315 315 315 315 315 316
317 319 321 320 320 323 321 317 320 324 321 317 315 319 322 318 317 317 314 314 314 313 314 316 317 319 319 319 320 321 322 322 321 321 320 316 314 314 314 314 315 315 316 317 318 319 320 319 318 317 318 318 318 318 318 318 319 319 319 319 319 320 319 319 318 318 318 317 315 314 314 313 313 313 314 313 313 313 312 313 313 313 313 313 314 313 313 312 312 311 312 312 313 313 313 313 314
318 319 321 320 321 325 321 316 315 316 318 320 318 319 319 314 315 317 315 313 313 312 313 312 315 319 319 321 323 323 323 322 321 320 318 314 311 312 312 312 312 313 314 315 315 316 317 318 318 318 318 319 319 319 319 319 319 319 318 318 318 318 317 316 315 314 313 312 311 310 310 310 310 310 310 309 309 309 309 309 309 310 310 310 311 312 312 312 312 311 310 310 310 311 311 311 311
319 321 320 317 318 321 318 314 315 315 314 316 317 317 316 314 316 317 315 314 313 313 312 312 316 319 321 324 325 323 323 321 319 318 314 311 309 310 310 309 310 310 311 312 312 313 314 315 315 316 316 317 317 318 318 317 317 316 315 315 314 313 312 312 311 310 310 309 309 309 308 308 308 308 307 307 307 307 307 307 307 307 308 307 307 308 308 309 309 309 308 308 307 307 308 308 308
317 319 318 317 318 319 315 312 317 319 315 315 319 317 315 315 315 315 315 315 314 313 312 312 316 320 322 325 324 322 321 318 317 317 315 312 309 309 308 308 308 308 309 309 310 310 311 311 312 312 312 313 313 314 313 313 313 312 311 310 310 310 309 309 309 308 308 308 308 307 307 307 306 306 306 306 306 306 306 306 306 306 306 306 306 306 306 306 306 306 306 306 305 305 305 305 306
315 316 315 316 318 318 318 315 316 320 317 315 318 317 320 323 317 316 318 316 314 313 313 312 314 319 323 323 322 321 320 318 317 317 316 311 308 308 308 308 308 307 307 308 308 308 309 309 309 310 310 310 310 310 310 310 310 309 309 308 308 308 308 308 308 307 307 307 306 306 306 306 305 305 305 305 305 305 305 305 305 304 304 304 304 304 304 304 304 304 304 304 303 303 303 303 303
314 315 314 314 315 315 318 318 316 317 317 317 315 316 325 327 316 315 316 315 316 315 315 315 315 320 322 321 321 320 319 320 318 317 315 309 306 307 307 307 307 307 307 307 307 307 307 307 307 308 308 308 308 308 308 308 308 308 308 308 307 307 307 307 306 306 306 306 305 305 305 305 305 305 305 305 305 305 304 304 304 304 304 303 303 303 303 303 303 303 302 302 302 302 302 301 301
315 314 314 314 315 315 317 318 316 315 316 318 315 317 327 325 315 316 315 315 319 317 317 317 318 321 322 320 319 318 318 319 317 316 313 307 306 306 306 306 306 306 306 306 306 306 306 306 306 306 307 307 307 307 307 307 307 307 307 307 306 306 306 305 306 306 306 305 305 305 305 305 304 303 303 302 301 301 300 300 300 299 299 298 298 298 298 298 298 298 298 299 299 300 300 300 300
Wind_Speed
1 3 5 5 6 8 8 4 2 2 2 2 3 3 3 4 4 5 5 4 3 4 4 5 6 6 3 3 5 9 8 6 4 1 3 8 16 17 18 23 21 19 17 16 15 13 11 10 9 9 11 13 14 14 13 13 13 12 12 12 13 14 14 16 16 16 17 16 16 16 15 15 17 18 17 17 17 17 18 19 18 19 18 18 18 18 18 18 17 16 16 15 15 15 15 15 16
1 3 7 7 6 6 3 1 1 3 3 1 4 4 4 3 3 6 5 5 6 5 4 6 5 4 1 2 1 7 10 9 8 6 9 17 19 17 20 21 20 19 17 17 15 13 11 10 10 11 12 14 15 14 13 13 13 12 11 12 13 13 14 15 16 16 17 16 15 16 16 16 17 16 16 17 16 16 18 18 17 17 18 18 18 17 18 18 18 17 17 16 16 16 15 15 15
2 1 5 8 6 5 2 0 1 4 2 3 4 3 5 4 4 7 8 9 8 6 6 5 3 3 3 1 5 7 7 7 10 10 11 18 16 16 21 20 20 19 18 18 15 13 12 11 12 12 12 14 16 15 13 13 14 12 10 10 12 12 12 14 15 16 16 16 15 15 15 15 16 15 15 16 15 16 17 17 17 17 17 17 17 17 17 17 17 17 17 17 17 17 16 16 16
3 1 3 6 4 4 2 1 2 4 1 3 3 3 5 6 8 10 9 8 7 6 5 2 1 2 4 5 6 6 7 6 10 10 8 15 16 19 22 20 20 19 19 18 16 14 13 13 13 13 13 13 15 16 14 14 14 12 10 10 10 10 11 13 15 17 16 16 15 15 15 15 15 15 15 15 15 16 16 16 16 17 17 17 17 17 17 17 17 17 17 17 17 17 17 17 17
3 3 4 5 2 1 2 1 3 2 2 1 3 4 5 8 10 9 8 7 6 5 2 2 1 1 2 4 4 3 5 6 10 11 11 18 21 22 22 20 20 18 18 18 16 15 14 14 14 14 13 13 14 16 15 13 13 13 11 10 11 11 9 12 15 15 14 14 15 14 14 14 15 15 15 14 15 15 15 15 15 15 16 16 16 16 16 17 17 17 17 17 17 17 16 16 16
6 5 5 4 1 1 1 2 4 1 3 3 4 4 7 10 10 9 8 6 5 5 3 1 2 2 4 4 6 4 3 4 9 11 15 22 23 22 22 19 19 19 19 18 16 15 14 14 14 14 13 13 13 15 15 14 15 14 12 10 12 12 10 11 13 13 13 14 14 14 14 14 15 15 14 14 14 14 14 14 14 15 15 15 16 16 16 16 16 16 16 16 16 15 15 15 15
8 5 3 3 1 0 1 4 4 2 4 5 4 3 9 10 8 9 8 5 4 4 3 2 2 2 4 3 5 6 8 7 10 13 18 23 24 22 21 19 19 19 19 18 16 16 15 14 14 13 13 13 13 13 14 15 16 15 12 11 12 12 10 9 11 11 12 13 13 13 14 14 15 14 14 14 13 12 13 13 14 14 15 15 15 15 15 16 15 15 14 14 15 14 13 13 15
7 3 1 1 1 1 2 5 2 4 2 4 5 4 10 10 7 8 6 5 3 3 1 1 2 2 2 4 4 4 10 13 15 19 22 23 24 22 19 19 19 19 19 18 16 16 15 14 14 13 13 13 13 14 15 16 16 14 11 12 12 12 11 9 10 10 11 12 12 13 14 14 14 13 13 13 12 11 12 12 14 14 15 15 15 14 14 14 14 13 13 13 13 12 12 13 15
7 3 1 0 2 2 2 5 1 5 3 3 4 5 8 9 6 7 6 5 4 5 5 3 2 1 3 7 7 5 7 13 18 20 20 21 22 20 18 19 19 19 19 17 16 17 14 14 13 13 13 13 14 14 16 17 15 14 12 12 11 11 11 10 9 10 11 12 12 13 14 14 13 13 13 13 12 12 12 12 13 13 14 15 14 13 13 13 13 12 12 12 11 11 12 13 14
5 3 1 1 2 2 3 4 2 5 5 5 4 5 6 6 6 7 6 7 6 5 5 4 3 0 3 8 6 5 7 13 19 18 18 20 19 17 17 19 19 18 17 16 17 17 15 14 13 12 13 13 13 14 16 15 14 14 12 11 10 9 10 10 10 9 9 11 11 13 14 13 12 11 11 11 11 12 12 11 12 12 13 13 13 13 12 12 12 12 11 11 11 12 13 13 12
2 2 2 1 3 3 4 3 4 4 5 5 5 5 3 3 4 6 6 7 6 6 5 3 3 2 2 6 3 6 12 14 18 18 17 18 17 16 16 18 18 15 16 17 17 16 15 15 13 12 12 13 13 13 14 13 13 12 11 11 10 8 8 9 9 8 8 9 10 13 14 12 10 11 11 11 11 12 11 11 11 11 12 11 11 11 11 11 11 11 11 11 11 12 14 13 12
1 2 1 2 4 3 2 2 6 5 6 5 5 3 1 2 3 4 7 6 5 7 5 4 2 1 3 5 2 8 13 14 17 18 17 17 16 15 16 17 17 15 15 15 15 16 15 15 13 12 11 12 12 13 13 13 13 11 11 11 10 9 7 8 8 7 7 9 11 12 13 10 10 11 11 11 11 11 11 10 10 10 11 11 10 10 10 11 10 10 10 10 10 11 13 12 11
2 3 2 3 3 1 2 3 6 5 4 4 5 4 3 3 3 4 7 7 5 5 5 4 1 1 3 5 4 8 11 14 18 19 17 16 15 15 16 16 15 15 14 13 13 14 14 14 13 12 11 11 11 11 11 12 12 10 11 10 10 9 7 7 6 7 8 9 11 11 10 9 10 10 9 9 9 10 11 10 9 11 11 11 10 9 9 10 10 10 10 9 10 11 12 11 11
1 3 2 3 3 1 2 3 5 4 3 4 6 5 4 2 1 3 5 6 4 3 2 2 1 1 3 4 5 5 9 17 19 19 18 15 15 14 16 16 14 15 14 13 13 12 12 12 12 12 11 10 10 10 10 11 11 11 11 10 8 8 8 7 6 6 7 8 9 10 8 8 9 9 8 7 7 8 9 10 9 9 8 8 7 7 8 9 10 9 9 9 9 11 11 10 9
2 3 1 2 2 1 2 1 3 3 3 5 6 6 4 1 3 4 3 3 4 2 3 4 3 2 2 2 4 7 14 21 20 20 18 15 15 13 14 16 13 14 14 14 13 12 12 11 11 12 11 10 10 10 9 9 10 10 10 10 7 7 8 7 6 6 6 6 8 8 8 7 7 7 6 6 6 7 7 7 7 6 4 4 4 6 8 9 9 8 7 8 9 10 10 9 8
1 3 0 1 2 2 1 1 1 2 3 4 6 6 5 2 4 4 2 1 4 1 2 3 2 2 4 4 9 17 21 23 21 20 18 16 15 12 13 15 13 13 14 13 13 13 13 13 11 11 11 9 9 8 8 9 9 9 9 8 7 6 6 6 7 6 6 5 6 6 6 7 6 5 5 4 5 5 5 5 4 4 3 2 3 5 8 8 7 7 8 9 9 9 9 7 7
0 2 1 2 2 3 4 3 2 3 4 5 6 6 6 3 2 2 2 1 4 2 2 5 4 5 7 9 18 26 25 23 23 21 17 15 15 11 11 14 13 12 13 13 14 14 14 15 12 11 13 10 9 8 7 9 9 8 8 8 7 6 5 5 5 6 6 5 5 5 6 6 5 5 3 3 4 4 5 5 4 3 2 2 2 4 6 7 7 8 9 10 9 8 7 6 6
0 1 2 3 4 3 3 3 3 6 6 5 6 6 6 6 3 2 2 1 3 4 4 6 8 8 10 15 21 25 25 24 23 21 17 15 14 12 10 12 14 14 13 13 14 14 14 15 13 11 14 13 12 11 8 8 10 9 8 7 7 7 6 5 4 5 5 6 6 6 8 6 4 4 2 2 4 5 5 6 5 2 1 2 1 3 6 6 7 8 9 9 9 8 7 6 5
2 2 2 3 2 1 2 6 5 4 8 7 6 6 4 6 7 3 2 4 4 4 5 7 8 7 8 15 20 22 23 23 22 21 19 17 16 15 13 13 15 15 15 15 15 15 14 15 14 14 15 14 14 13 10 8 10 9 7 7 7 7 7 6 4 4 5 6 7 8 8 5 2 4 4 1 3 5 6 7 6 4 1 1 1 3 5 6 7 7 7 8 9 9 7 5 5
2 2 3 3 4 5 6 8 6 5 6 8 6 4 2 5 6 3 3 6 6 5 6 7 7 8 8 12 18 19 20 21 21 20 20 19 18 18 17 16 17 17 17 17 16 16 16 15 15 14 15 14 14 14 11 8 9 8 6 6 5 6 7 7 5 4 5 4 7 10 6 6 6 6 5 3 3 5 7 8 6 5 3 2 2 3 4 5 6 6 7 7 8 7 6 2 3
1 1 2 1 5 7 6 7 6 6 3 6 7 4 3 4 4 4 5 5 6 6 7 9 9 12 11 10 15 18 18 19 20 19 19 20 19 18 18 17 18 17 18 17 16 17 17 16 15 15 15 14 14 14 12 8 8 10 8 5 4 4 5 6 7 6 6 6 5 9 4 8 7 5 5 4 4 4 5 6 6 5 2 3 4 3 3 4 4 5 6 5 5 5 4 2 3
1 1 2 3 4 6 4 6 5 4 2 5 8 5 4 4 3 5 6 3 3 2 3 5 6 13 15 13 15 16 15 16 18 18 19 20 19 19 18 17 17 16 18 18 18 18 17 17 16 16 15 15 15 14 12 10 10 12 10 8 6 6 5 5 8 8 7 8 7 8 6 9 7 6 6 4 5 3 3 3 5 4 1 3 3 2 1 2 2 3 4 5 3 2 3 6 7
2 2 3 5 5 6 4 4 2 3 2 5 5 4 6 5 4 5 5 2 4 2 5 6 7 15 19 16 15 13 13 14 17 19 20 21 20 20 19 18 18 17 18 19 19 19 19 18 17 17 16 16 16 14 13 13 13 12 11 11 10 9 9 7 8 9 7 8 8 9 8 8 8 7 6 4 7 6 5 2 3 4 4 4 4 3 3 5 4 5 6 4 3 5 9 9 8
3 2 4 3 5 7 5 5 2 2 3 3 2 3 5 5 4 1 3 3 7 5 6 7 10 18 20 15 13 12 14 16 18 19 20 21 21 21 20 19 19 19 19 20 19 19 20 19 18 18 17 16 17 16 14 14 14 14 13 13 13 11 11 9 9 9 8 8 8 9 9 6 7 7 7 5 8 9 7 5 5 7 8 8 7 7 7 10 8 7 6 5 6 9 10 9 8
6 3 5 3 5 6 6 6 4 4 3 3 2 2 4 2 2 1 5 5 8 6 7 8 9 14 14 12 11 11 13 15 17 18 18 18 20 20 19 18 19 19 19 19 19 19 21 21 19 18 18 17 17 16 15 14 13 14 14 15 15 13 12 10 9 10 10 10 9 9 10 8 7 8 9 7 8 10 8 9 9 10 10 9 10 10 10 12 10 8 8 9 10 9 9 9 8
7 4 6 6 6 6 6 6 5 4 2 2 3 3 4 4 2 3 6 6 9 7 7 7 7 8 9 9 10 10 11 14 17 18 19 18 19 19 19 18 18 20 20 19 19 18 20 22 21 20 20 18 17 16 16 15 14 15 16 15 15 15 14 12 10 10 11 11 10 10 10 11 10 8 10 9 9 10 10 11 11 11 10 10 11 10 11 12 11 9 9 10 10 9 9 9 9
6 5 6 7 6 5 5 5 5 4 4 3 3 5 4 2 0 2 3 7 9 8 7 6 7 7 8 8 9 12 12 14 18 19 18 18 18 19 20 19 18 19 21 21 21 19 19 22 22 21 20 19 19 18 18 18 16 16 16 15 15 15 16 14 12 11 12 12 11 11 12 12 12 11 10 11 11 11 12 13 12 12 11 11 12 11 11 12 10 10 10 11 10 10 10 9 10
8 8 7 5 6 5 4 6 6 3 4 3 2 4 4 3 1 4 4 6 7 8 8 7 6 6 7 8 8 10 11 15 19 18 17 18 19 19 20 21 20 18 20 22 22 21 20 22 23 22 21 20 20 20 19 19 17 16 16 15 15 15 16 16 15 14 13 13 13 12 12 13 13 13 11 11 12 12 13 14 13 12 12 12 12 12 11 12 11 10 11 12 12 11 11 10 11
7 8 6 4 4 4 4 6 5 3 2 4 2 2 3 3 7 7 7 6 6 7 8 7 7 6 7 8 7 7 10 15 18 17 18 20 21 21 21 23 23 20 19 20 21 22 21 22 24 23 23 22 22 22 20 19 18 17 17 16 15 15 15 16 16 16 15 15 14 13 13 13 13 13 13 12 13 13 13 13 13 13 13 13 13 13 12 13 13 12 13 14 14 14 14 13 13
5 5 5 5 3 3 5 5 5 3 2 4 2 0 4 8 11 7 8 7 7 6 7 7 6 6 6 7 7 6 10 14 16 18 20 21 22 22 22 23 24 23 20 19 20 22 22 22 23 24 24 23 24 24 21 20 19 18 17 17 17 17 16 16 16 17 17 17 16 16 16 16 15 14 14 13 14 15 14 14 15 15 15 14 14 14 14 15 15 14 14 15 15 15 16 16 16
4 5 3 4 3 3 6 6 6 4 0 4 3 2 5 3 4 7 7 7 8 6 7 7 6 6 6 6 7 6 8 13 17 19 21 22 23 23 22 22 23 24 22 20 21 22 22 22 23 24 24 24 24 24 23 21 20 18 17 17 17 18 19 18 17 17 17 18 18 17 18 18 17 16 16 15 15 16 15 15 16 16 16 16 16 16 16 16 16 16 16 16 16 16 16 16 16
3 5 3 4 4 3 4 5 8 6 1 5 4 3 5 1 4 5 4 4 5 6 6 7 7 7 6 6 6 6 7 12 17 19 21 21 22 22 23 23 23 24 24 22 22 22 23 22 23 23 24 25 24 23 23 22 19 18 18 17 16 18 19 20 19 18 18 19 20 20 19 19 19 18 17 17 16 16 17 17 17 17 17 17 17 18 18 18 18 17 17 17 18 17 16 16 16
3 5 3 5 5 3 3 3 5 5 5 5 5 3 3 2 3 3 4 5 4 4 6 6 7 8 7 6 6 6 6 9 13 17 20 21 21 22 23 23 24 25 24 24 23 24 24 23 23 23 23 25 25 23 23 22 21 19 18 18 17 18 19 20 20 20 20 20 21 22 21 21 21 20 18 19 19 19 20 19 19 18 17 18 18 19 20 20 19 19 19 18 18 17 16 16 16
4 4 3 4 5 4 4 1 3 5 6 5 6 4 4 3 5 5 5 6 6 5 6 6 5 7 7 7 7 7 7 7 9 15 20 22 22 21 22 23 24 24 25 24 24 26 26 24 24 24 22 23 24 24 22 21 20 19 18 18 18 19 19 18 18 19 21 21 21 22 22 22 22 21 20 19 19 20 21 21 20 19 18 19 20 20 20 20 19 19 20 19 18 18 18 17 16
3 5 4 4 6 7 6 2 3 7 5 4 6 6 8 6 5 6 6 7 8 7 7 6 6 6 7 7 7 7 8 7 9 17 22 22 23 22 21 22 23 24 25 24 23 25 26 25 25 25 23 22 23 23 22 20 19 19 19 19 19 19 20 19 18 18 19 19 20 20 20 22 22 21 20 18 17 18 19 19 17 16 16 18 20 21 20 19 20 20 20 20 19 19 19 18 16
5 5 4 4 5 5 4 1 2 6 4 4 7 7 9 8 7 7 8 8 8 8 7 6 6 6 6 6 6 7 7 7 11 20 23 23 24 24 22 23 24 24 25 25 23 24 25 25 25 27 25 22 22 22 22 21 20 20 20 20 21 21 21 20 19 19 19 19 18 18 18 19 20 19 19 18 17 18 19 19 17 16 17 18 20 20 20 20 20 20 20 20 20 19 19 19 18
7 7 5 3 4 2 3 2 2 0 2 6 8 7 7 8 8 8 8 8 7 7 8 7 7 6 6 7 7 7 7 6 10 16 22 25 24 24 24 23 25 24 24 25 25 25 26 26 26 26 27 25 23 24 24 24 24 23 22 22 22 21 21 21 20 19 19 18 18 18 19 19 20 20 20 19 17 17 19 20 20 20 20 20 22 22 22 22 20 20 20 20 20 20 20 19 20
4 8 6 4 4 2 2 2 1 2 1 5 7 8 9 8 7 7 6 8 8 8 9 8 8 8 7 8 8 8 6 4 8 11 16 22 23 23 24 24 26 26 26 26 27 27 26 27 26 26 26 27 26 25 26 26 26 25 23 23 22 20 19 20 20 18 17 17 18 19 19 20 21 21 21 20 18 20 22 21 20 22 23 25 25 24 24 24 22 21 21 21 21 22 21 20 20
1 3 5 4 3 3 2 3 1 2 1 1 1 3 7 7 7 7 7 8 8 9 10 9 10 9 8 9 9 8 6 5 7 8 12 19 21 22 23 24 26 27 27 27 27 28 27 27 27 26 25 27 28 26 25 26 25 24 22 20 19 19 18 19 20 19 18 19 19 20 20 21 22 21 21 21 21 23 24 24 23 24 26 26 24 24 24 25 25 25 25 25 23 23 22 21 22
0 2 4 4 3 4 1 1 1 2 1 1 3 3 5 6 6 8 9 9 7 8 10 10 9 10 9 8 7 8 9 8 8 7 9 15 18 20 22 24 25 25 25 27 27 27 28 28 28 27 26 26 27 27 25 24 23 21 20 17 15 16 16 17 19 19 20 21 22 21 20 20 20 20 20 21 21 21 23 25 25 25 25 23 21 22 22 23 25 26 26 27 26 24 23 24 25
3 2 2 3 5 4 2 3 3 2 1 1 2 4 5 6 8 9 8 9 9 8 8 9 8 8 7 4 4 5 7 8 9 8 9 13 16 19 22 24 24 24 25 26 28 28 28 29 28 28 27 26 26 27 26 23 21 21 20 17 15 16 15 15 16 18 19 21 21 20 19 18 17 18 18 18 18 18 19 21 21 19 19 21 22 24 24 23 23 24 24 26 27 26 25 25 24
3 2 1 2 5 7 7 6 4 2 1 2 2 1 6 5 8 10 6 7 9 7 7 9 7 6 5 5 5 5 4 4 6 7 6 11 16 18 20 21 23 25 26 26 26 27 26 27 27 27 27 26 25 25 26 24 22 22 23 22 21 19 17 17 17 17 18 20 21 20 18 17 16 16 16 15 16 16 17 17 16 17 21 24 25 25 24 23 23 25 25 25 26 26 26 24 22
3 3 1 2 8 9 8 7 4 3 2 2 2 3 5 4 4 7 5 6 7 5 6 8 7 6 6 6 7 5 5 5 5 4 4 7 13 16 17 20 22 23 24 23 23 23 23 23 25 26 26 26 25 24 25 26 24 23 24 24 23 22 20 19 17 16 16 17 17 16 16 17 17 17 16 16 17 18 19 19 19 21 24 25 25 24 23 23 25 26 25 25 25 25 25 24 23
3 3 3 5 9 8 7 6 3 2 2 2 2 2 2 4 5 4 5 5 5 5 7 8 7 7 7 6 6 6 6 5 6 5 4 5 8 10 12 15 17 17 17 19 21 21 21 20 22 24 24 24 25 24 25 27 27 25 23 22 21 20 19 16 13 12 13 13 12 11 11 11 13 14 14 14 15 16 17 17 18 19 20 20 20 22 24 25 24 24 25 26 27 26 24 24 25
2 3 3 2 6 6 7 5 2 2 3 1 3 1 0 4 6 2 3 3 5 7 9 9 8 8 7 7 6 5 5 5 5 5 5 6 7 7 8 10 12 13 14 17 19 20 20 19 20 22 22 23 24 25 24 26 27 25 23 21 19 18 16 15 12 10 10 11 11 11 11 10 10 11 13 13 14 15 14 13 13 14 15 16 18 21 23 23 23 25 27 27 26 26 25 24 24
4 3 3 5 5 4 4 4 3 3 1 3 5 5 2 4 5 3 3 3 6 8 7 7 7 7 6 6 6 5 4 4 4 4 3 5 6 6 6 8 10 11 12 14 16 18 19 18 19 21 21 21 22 23 23 24 24 23 22 21 19 18 16 15 13 11 11 11 11 11 12 12 12 12 13 14 15 16 16 16 15 14 15 15 15 16 17 19 21 23 25 24 24 24 25 25 26
5 4 5 6 5 5 3 1 4 3 2 3 4 5 3 3 5 5 4 4 5 5 3 5 6 6 6 5 5 5 5 5 4 4 5 6 6 5 6 7 7 8 10 12 14 16 19 20 20 20 19 19 20 21 22 22 22 20 20 20 19 17 14 14 13 13 12 12 12 11 10 11 12 12 12 12 14 15 17 18 19 19 19 19 19 18 17 18 18 19 19 21 22 23 25 27 28
4 3 5 5 4 4 4 3 3 1 3 3 3 2 1 3 5 3 3 3 2 3 4 7 7 6 6 5 4 4 4 5 5 5 5 7 6 7 8 8 8 9 10 12 13 16 19 20 20 20 19 18 18 20 20 21 21 18 17 17 16 14 13 12 12 11 9 10 9 7 6 7 7 7 9 10 11 12 13 15 16 17 17 17 18 18 18 18 17 18 18 19 20 22 24 25 26
1 3 6 5 1 1 1 1 1 2 3 3 2 3 1 5 6 6 6 5 5 3 3 7 8 7 6 5 5 4 3 4 5 5 5 5 6 8 11 11 11 12 12 13 14 16 18 19 21 21 20 18 18 19 19 19 19 17 15 15 15 14 13 11 10 8 6 5 4 4 4 4 5 5 6 8 8 9 10 10 10 11 13 14 15 16 16 16 17 18 18 18 18 18 19 21 23
3 5 6 5 4 2 2 3 2 3 3 4 3 2 2 4 5 9 11 7 5 5 5 6 8 8 7 6 6 5 4 4 5 5 5 5 6 9 11 12 12 13 13 13 14 16 18 19 21 22 20 19 19 19 19 19 18 16 14 14 14 13 12 10 8 7 5 4 3 3 3 3 3 3 4 5 5 5 6 7 8 9 11 12 13 14 15 16 16 17 17 18 18 18 18 19 21
5 5 4 4 4 3 4 4 3 3 1 2 3 1 3 3 3 6 5 1 4 6 6 7 7 7 7 6 5 5 5 5 5 5 5 6 7 9 11 12 13 13 14 14 15 15 17 18 19 20 19 19 19 19 18 18 17 15 14 13 12 10 10 9 7 6 6 6 6 5 5 4 5 4 5 6 7 7 7 8 9 9 10 10 10 11 12 13 13 13 14 16 17 17 18 19 20
3 2 4 3 4 4 3 2 3 4 2 0 2 2 5 4 3 4 3 4 6 6 4 6 6 5 6 5 5 5 5 5 5 6 5 6 9 10 11 12 12 13 14 14 14 15 17 18 18 18 18 17 17 17 16 16 15 14 13 13 12 11 11 10 8 8 7 6 5 4 4 4 5 6 7 8 9 9 10 11 11 11 10 10 8 8 10 11 12 12 13 14 15 16 17 18 20
1 2 3 4 2 6 5 1 0 3 1 2 3 3 5 3 4 4 5 5 4 4 4 5 6 6 6 6 5 5 5 5 5 5 5 7 9 10 10 11 12 13 14 14 14 15 16 18 20 19 19 18 17 17 16 16 16 15 14 14 13 12 12 10 8 6 4 2 1 1 1 2 3 4 5 5 6 6 6 7 8 9 9 9 8 8 8 9 11 13 14 15 16 16 17 19 20
3 3 4 2 1 3 3 1 1 2 2 2 4 5 4 2 3 1 5 5 5 6 6 5 6 6 6 6 6 6 6 6 6 6 6 7 9 10 10 11 12 12 13 14 14 15 16 17 19 20 20 19 19 18 17 16 16 16 14 13 12 10 9 8 5 4 3 2 3 3 2 2 1 2 3 4 5 6 7 7 8 8 8 9 8 8 8 8 10 12 13 15 16 16 17 18 19
3 2 1 2 1 1 1 3 2 2 3 3 3 6 4 4 4 2 4 8 8 8 7 7 7 7 7 6 6 7 6 6 6 6 6 7 9 10 10 11 11 12 12 13 14 14 16 17 17 19 19 18 18 18 17 16 15 15 14 12 11 9 8 7 7 7 7 7 7 7 6 6 6 6 7 8 9 10 10 10 10 9 9 9 9 9 10 10 10 11 13 14 15 16 16 17 18
1 1 2 2 2 2 3 3 3 3 3 3 3 3 4 5 6 6 8 9 10 9 8 8 9 8 7 7 7 7 6 6 6 6 5 6 10 10 10 11 12 12 13 13 14 15 15 16 16 18 18 18 18 17 17 17 16 15 14 13 12 11 11 11 11 11 12 12 11 11 10 10 11 11 12 12 13 13 13 13 13 12 12 12 12 11 11 11 11 12 12 14 15 16 17 18 19
2 1 2 2 1 2 1 2 2 3 3 3 3 3 5 5 5 7 9 7 7 10 10 8 8 8 7 7 8 7 7 6 6 6 5 6 10 11 11 11 12 13 13 14 15 16 17 17 17 18 19 19 19 18 18 18 17 16 16 16 15 15 15 15 15 15 15 15 14 14 14 14 14 14 14 15 15 15 15 15 15 15 14 15 15 15 14 14 14 14 14 15 15 16 17 19 20
5 3 5 6 4 3 1 3 3 2 2 3 3 3 6 5 2 1 3 3 1 5 9 8 7 9 8 7 8 8 7 7 6 6 6 7 10 11 11 12 12 13 14 14 15 16 17 18 18 19 20 20 19 19 19 19 18 18 19 19 19 19 18 18 18 18 18 18 17 17 16 16 16 16 15 15 15 15 15 15 15 15 15 16 16 17 17 18 18 18 18 18 18 18 19 20 21
Wind_Direction
299 341 331 322 312 306 286 251 253 248 218 243 126 109 73 84 103 108 110 144 105 61 47 59 51 36 32 330 75 81 39 27 28 49 108 135 141 137 130 128 130 132 133 131 131 127 116 109 100 99 97 100 104 97 88 86 93 87 70 69 82 88 91 93 92 90 86 81 78 77 75 75 76 78 80 75 75 78 79 78 77 75 74 76 75 75 75 75 76 78 78 77 79 77 77 81 86
272 331 305 296 286 283 288 171 263 253 205 157 73 85 107 118 136 126 117 103 86 85 68 62 60 35 11 259 96 79 52 46 68 83 105 128 131 127 130 130 132 133 131 129 131 130 121 115 108 105 101 105 105 97 90 93 98 92 78 70 77 84 90 95 92 90 86 83 81 80 80 81 81 80 81 79 79 78 77 80 78 75 74 75 74 74 75 74 75 76 77 77 77 76 76 78 85
262 292 286 288 265 233 261 219 237 268 235 117 80 112 137 128 107 97 90 83 89 98 77 64 80 27 328 37 59 68 76 70 85 92 111 130 130 131 135 131 131 129 128 131 133 134 126 120 113 107 104 107 107 100 95 99 102 98 97 85 77 80 87 92 91 90 87 86 84 83 83 83 83 82 83 82 82 77 76 78 76 75 76 76 76 75 75 74 75 76 77 77 77 78 77 78 82
271 292 297 300 267 224 255 240 237 283 322 113 117 157 143 112 93 81 83 88 95 105 102 110 115 38 355 35 57 78 91 82 97 106 124 135 134 135 135 130 128 129 136 137 136 137 129 123 115 108 105 109 112 107 102 103 105 100 95 88 82 83 82 86 91 90 85 85 85 86 86 86 86 85 87 87 84 80 79 79 76 76 77 78 77 76 76 76 76 77 78 77 78 79 80 81 82
294 314 288 291 288 259 276 279 270 298 347 92 120 146 132 104 101 95 91 87 91 97 119 141 93 91 60 27 26 78 89 97 113 108 113 127 132 134 133 129 127 132 138 135 138 139 130 124 115 110 107 110 116 114 112 110 109 99 89 84 84 89 86 87 93 89 83 82 85 90 90 90 90 88 91 91 86 84 83 82 81 80 78 80 79 78 78 78 78 79 80 80 80 80 82 83 85
314 305 258 257 273 327 320 278 259 132 2 7 101 132 115 103 107 104 95 80 73 64 19 86 102 85 102 55 47 54 31 104 122 104 113 127 133 134 133 131 128 131 131 134 142 138 130 124 115 111 108 110 117 120 121 120 115 103 95 89 83 92 92 88 92 86 80 82 85 92 93 94 93 91 92 89 86 87 87 84 85 83 80 81 81 82 81 79 80 82 82 82 82 82 84 87 92
305 297 227 232 241 285 268 263 260 102 2 6 76 111 101 103 113 109 110 99 79 75 4 25 91 59 118 121 72 50 27 66 114 115 127 132 133 134 134 133 129 131 131 138 145 136 131 124 117 114 110 109 115 121 123 124 117 103 101 100 92 97 98 91 93 87 81 80 83 92 96 96 95 92 92 92 91 93 90 84 86 85 80 81 81 83 82 81 82 83 85 85 83 83 86 92 99
275 275 183 227 242 200 257 262 269 90 14 11 45 60 100 114 125 123 136 137 138 141 133 45 65 7 145 129 94 74 52 73 102 119 132 134 135 136 135 135 132 133 134 142 144 136 134 125 119 117 113 110 112 118 123 127 119 103 103 106 102 103 106 104 100 93 86 81 85 95 99 97 96 95 96 96 93 90 86 82 82 83 81 83 85 86 85 84 84 84 85 85 84 84 87 96 101
236 223 339 75 234 176 256 264 130 95 102 81 65 58 102 127 132 131 134 120 133 141 143 156 92 43 120 96 93 111 79 91 108 120 134 136 137 135 136 138 135 135 137 144 143 138 136 128 123 121 117 112 112 118 127 132 123 109 102 101 104 105 107 109 105 94 88 84 89 100 101 97 97 99 100 95 91 87 86 85 82 82 84 87 86 87 87 85 85 84 84 84 82 82 88 95 97
214 182 272 243 267 183 222 252 93 93 94 82 99 93 101 132 139 137 128 113 127 127 120 117 93 333 115 102 102 115 114 116 118 124 134 139 138 135 140 140 137 140 142 145 145 143 140 132 127 126 124 118 115 120 131 136 129 119 111 108 105 107 108 107 104 94 89 84 89 105 104 98 98 100 100 97 94 91 89 86 82 83 87 89 87 87 88 87 87 86 84 84 80 81 85 87 90
217 191 236 238 264 208 215 193 112 107 106 88 95 96 93 128 146 142 120 113 128 115 105 119 121 221 133 101 96 114 129 130 124 130 136 139 139 137 141 135 136 143 144 148 150 149 143 137 133 131 130 124 120 121 129 137 139 129 122 119 105 107 111 107 107 97 92 87 93 112 109 101 105 106 104 102 100 97 91 87 88 87 89 91 90 89 89 88 88 90 88 85 83 82 83 83 87
225 217 204 223 239 218 252 138 113 107 112 120 113 112 133 128 157 144 119 117 135 124 138 184 121 211 147 96 112 131 137 138 131 136 138 139 141 140 140 135 138 142 144 148 150 151 147 141 138 138 136 130 126 124 127 134 143 136 127 125 110 111 111 108 115 101 99 100 103 118 117 110 115 115 113 114 113 109 101 96 93 86 85 88 89 89 89 89 89 91 90 86 84 83 83 85 87
228 234 193 238 258 245 318 69 102 110 125 148 129 137 160 154 179 144 123 129 145 144 148 173 88 22 108 91 120 139 145 143 136 138 140 141 144 142 139 141 143 142 143 147 147 151 151 148 146 145 141 136 132 127 127 130 139 138 135 134 119 115 114 114 121 108 108 110 110 121 126 121 122 122 124 121 116 116 110 100 93 91 91 93 93 92 92 92 90 90 90 89 86 85 85 85 87
230 254 190 238 282 354 348 72 116 138 133 122 116 142 161 161 202 105 118 130 128 148 113 86 59 38 96 115 140 149 148 144 139 140 142 142 144 144 143 148 148 143 147 150 151 151 151 154 156 153 147 144 140 134 131 129 132 136 141 144 128 110 107 111 124 123 116 112 110 116 121 125 130 129 131 124 112 117 114 106 107 104 98 96 87 84 94 94 92 92 92 94 89 85 84 83 82
231 288 202 251 291 58 6 77 141 152 119 112 128 150 144 47 351 42 71 105 89 108 101 54 15 28 85 128 154 152 146 143 142 142 143 142 145 147 145 150 151 151 155 154 156 157 154 160 164 160 155 151 149 143 138 135 132 135 142 146 137 113 104 100 112 132 130 114 108 112 112 122 139 141 139 134 121 126 125 116 118 109 88 77 55 65 93 97 97 100 99 97 92 88 85 80 76
223 309 284 259 255 149 202 185 91 109 118 125 142 146 127 61 7 38 0 52 99 127 110 74 19 56 58 53 117 136 142 142 141 144 144 140 146 149 145 152 156 158 164 162 161 162 160 166 171 163 157 155 150 149 149 147 140 138 144 148 144 129 117 105 103 121 137 122 109 113 112 118 134 151 156 153 141 136 142 138 126 112 89 55 39 71 97 102 103 103 103 101 96 91 84 78 78
196 304 246 245 225 161 181 175 127 120 115 126 147 150 133 114 29 75 255 329 108 136 89 79 69 77 76 85 116 131 140 142 141 145 144 137 144 149 147 157 161 165 173 171 168 167 166 171 176 161 159 163 152 161 171 156 153 150 151 155 153 152 141 128 112 115 133 133 118 109 103 102 104 122 136 148 158 148 150 166 160 127 102 71 48 92 106 108 110 107 107 106 101 91 83 80 82
109 227 200 217 218 181 179 138 118 130 129 141 157 170 148 137 148 113 170 123 106 134 121 95 79 77 93 107 119 131 139 143 146 149 147 142 148 158 168 169 166 172 180 179 177 175 171 172 176 163 164 171 158 172 190 164 165 165 162 166 162 166 163 154 144 128 136 135 128 112 102 91 70 115 141 122 157 164 158 174 182 169 119 104 80 124 120 116 115 110 112 110 102 84 73 67 59
204 224 212 229 203 54 45 74 66 102 134 147 156 192 177 145 156 133 163 168 152 155 151 135 108 95 108 118 125 135 142 147 153 154 152 156 160 165 178 181 175 178 183 186 184 181 180 176 177 171 171 176 165 174 193 180 173 171 171 176 176 176 172 170 164 143 142 136 129 119 117 128 125 170 206 184 159 173 164 175 190 204 211 160 157 153 123 116 117 115 119 112 100 81 71 54 20
230 238 217 226 123 75 43 70 59 53 119 144 148 191 157 136 143 135 201 176 168 191 170 159 147 143 146 138 138 145 151 154 161 162 160 166 170 170 177 183 183 184 185 189 186 185 187 184 182 177 177 179 171 176 189 187 171 170 181 181 190 189 178 170 164 162 160 166 134 116 136 183 186 206 226 240 203 175 168 178 190 202 213 202 198 179 139 129 132 134 134 118 107 93 84 70 345
191 230 224 224 113 87 52 66 56 35 78 137 134 151 138 137 132 152 211 173 172 217 181 174 174 156 154 152 148 153 160 163 167 169 167 171 175 175 181 184 185 187 185 187 189 188 189 188 187 181 182 181 177 180 183 185 162 167 191 189 181 183 188 168 166 187 179 203 161 119 182 211 191 223 236 227 199 162 172 187 192 203 211 192 194 176 156 156 153 151 147 128 108 95 98 175 224
191 178 29 6 72 93 84 70 46 9 18 112 128 156 138 114 123 182 219 180 164 264 125 144 155 151 154 155 152 157 166 170 173 175 174 176 179 178 183 184 184 189 184 185 191 191 189 190 191 186 186 185 185 185 178 183 168 169 192 191 181 179 202 179 173 203 193 208 190 140 212 222 185 225 245 185 157 179 210 193 182 184 200 185 172 131 156 216 180 186 182 148 111 113 185 216 216
229 174 59 8 57 104 110 86 53 347 53 118 132 143 122 133 173 199 231 165 119 74 71 62 84 134 146 149 152 159 169 177 180 182 181 180 183 181 183 183 182 187 183 185 192 192 191 191 191 190 191 189 190 188 180 188 181 176 189 189 189 186 201 197 183 211 215 221 207 166 208 225 184 211 245 165 152 207 234 213 169 170 207 218 183 148 228 250 216 223 230 183 163 218 221 226 231
245 190 111 39 67 100 100 107 141 54 73 101 96 110 129 176 181 157 249 155 120 103 88 74 92 125 137 144 157 168 172 181 185 187 188 186 188 185 185 184 181 185 184 187 191 191 193 192 191 191 193 194 192 190 187 194 188 182 190 191 193 190 199 207 193 205 218 232 232 195 199 214 193 203 234 202 172 203 222 209 192 193 208 215 206 183 213 243 229 224 234 219 216 228 236 240 246
242 194 128 120 89 104 105 116 136 100 87 58 68 127 111 136 111 71 243 173 133 121 102 95 103 126 139 149 163 171 172 181 184 188 194 192 192 191 190 189 181 182 185 188 191 193 193 192 192 193 194 197 196 194 192 197 192 187 196 198 198 196 198 209 205 201 208 225 243 225 202 198 204 207 224 226 198 201 213 212 205 209 214 212 216 202 209 235 236 229 226 228 237 240 247 256 260
224 182 131 138 114 119 128 123 135 128 125 104 127 141 79 65 88 232 227 161 133 130 117 121 126 137 151 155 164 171 173 180 182 186 194 194 195 195 195 195 185 181 186 189 191 194 194 193 195 195 196 197 197 197 195 198 197 193 201 203 201 203 201 203 210 207 204 213 233 242 223 199 198 210 224 228 215 206 210 218 216 216 221 217 223 222 220 234 238 234 231 235 244 244 244 254 263
180 148 108 125 121 133 156 126 136 135 116 163 176 136 107 70 136 244 202 138 133 134 137 149 150 156 164 161 166 172 176 182 183 183 187 192 196 197 197 200 195 188 187 188 191 194 196 195 194 196 198 198 198 200 199 199 200 199 203 204 203 208 207 202 206 212 211 211 217 239 244 217 196 200 222 227 219 215 214 222 224 220 224 222 227 231 229 237 239 232 237 241 241 242 245 248 254
137 122 87 111 122 122 153 127 146 149 112 203 219 111 115 86 194 216 157 143 149 146 153 165 174 179 171 166 165 170 179 183 183 183 183 189 194 196 198 200 202 201 192 189 192 194 197 196 194 196 198 199 199 200 201 201 202 203 203 205 206 211 213 210 209 209 213 216 212 222 242 239 216 200 209 224 220 219 221 226 230 226 226 227 232 236 233 239 240 230 235 242 240 239 244 245 249
133 133 106 134 137 130 169 137 155 177 132 206 221 84 148 185 225 203 148 153 161 161 167 167 183 192 179 171 163 169 179 177 179 185 187 189 192 195 198 199 201 205 199 194 193 193 196 196 194 195 198 202 201 200 201 202 203 206 205 205 208 213 215 215 215 213 213 218 217 218 226 234 232 217 211 218 220 221 224 228 232 231 229 231 235 238 237 240 243 237 237 244 246 242 243 244 243
157 172 133 141 161 182 179 135 145 149 122 211 195 228 223 220 221 177 137 153 150 165 177 167 183 192 185 171 159 169 179 175 178 187 191 191 192 195 198 199 201 203 201 196 194 192 194 196 196 196 198 204 206 203 202 203 202 205 208 207 210 218 220 216 217 221 219 217 218 221 224 223 225 227 222 223 229 227 224 227 231 231 232 234 237 243 244 246 248 246 246 251 254 253 252 252 248
174 195 170 155 168 189 171 143 152 139 5 233 167 219 259 243 183 135 137 158 149 170 184 175 182 184 183 169 164 176 181 181 182 188 192 192 193 194 196 198 199 201 199 197 196 194 195 197 197 197 198 203 208 207 204 206 204 205 209 211 213 217 222 223 220 222 225 224 222 222 227 226 222 223 221 225 237 238 231 230 233 235 237 240 243 248 251 252 253 254 253 255 258 260 259 257 254
190 182 196 184 162 156 164 165 172 154 206 226 174 213 256 197 121 121 137 161 165 191 201 189 177 173 179 171 176 184 183 186 187 190 194 194 193 192 194 196 196 198 198 198 197 195 196 198 198 199 200 202 207 208 205 206 206 206 210 212 215 218 221 226 227 227 230 231 230 229 232 232 229 228 222 221 231 237 233 230 232 237 242 246 249 253 255 256 257 259 257 255 256 259 262 261 258
212 177 183 186 169 152 169 221 212 150 131 206 217 230 246 177 154 148 149 164 180 218 233 210 179 170 176 176 186 190 183 184 188 192 193 193 193 192 193 194 195 197 197 198 197 195 195 197 199 200 203 204 205 209 210 210 208 207 210 211 215 222 223 225 230 234 235 235 235 235 238 239 238 239 239 237 237 239 238 237 237 241 245 247 250 253 257 260 258 257 256 254 253 253 256 260 261
202 180 190 190 177 163 160 233 246 162 146 195 215 237 248 195 168 170 180 173 169 210 239 228 198 177 176 178 185 191 188 185 190 194 192 192 191 191 193 194 195 196 197 198 198 198 196 196 199 199 203 205 203 208 212 212 211 209 211 215 218 221 225 227 231 234 236 240 240 239 242 243 242 247 251 249 248 249 248 249 250 251 249 246 247 253 258 261 258 255 254 253 252 253 253 255 259
184 178 189 189 193 188 174 185 190 173 187 203 184 221 248 225 180 181 198 183 171 195 212 216 213 194 184 183 188 194 193 192 189 191 192 190 189 189 190 191 192 194 196 196 197 199 197 198 201 199 199 202 201 205 210 210 209 209 211 217 221 221 223 227 230 232 235 241 244 244 244 244 245 248 248 246 249 254 252 252 254 254 252 248 249 251 253 257 256 254 252 251 252 255 258 256 254
179 190 207 186 190 193 157 121 167 159 178 212 189 210 235 234 219 195 192 191 185 189 192 201 210 204 195 188 195 197 198 206 193 190 192 189 187 188 188 188 189 192 194 194 194 196 195 196 200 200 199 199 198 199 204 206 205 207 211 215 220 222 224 226 228 230 232 236 243 246 247 248 247 245 243 241 244 250 251 250 248 247 246 246 246 246 248 253 255 254 253 252 252 253 257 257 250
178 185 232 199 143 127 85 76 309 347 155 212 217 226 236 234 232 213 185 184 192 189 187 197 203 204 205 200 206 205 204 205 183 180 185 185 185 186 187 188 188 190 193 194 194 195 195 195 197 201 201 198 197 197 199 201 202 203 207 212 217 221 224 225 227 228 230 233 237 241 246 248 246 244 244 242 245 253 252 248 247 247 245 242 242 244 247 252 253 254 255 255 253 251 251 252 249
191 176 205 205 155 139 44 65 296 343 72 212 220 230 246 242 240 240 196 180 193 195 192 200 203 200 202 202 209 210 197 164 154 153 162 171 177 182 186 189 190 191 193 195 198 198 198 197 197 200 201 199 198 198 199 201 204 205 206 210 213 216 220 222 224 225 227 230 232 235 239 242 242 244 243 241 250 255 247 241 248 255 254 248 243 244 247 250 252 252 254 255 254 252 250 250 250
276 144 170 199 176 130 53 24 29 8 32 265 268 238 256 258 248 246 227 211 208 199 195 198 200 201 203 202 205 205 185 156 162 156 155 164 170 177 183 189 193 196 197 198 200 200 200 200 200 200 201 201 200 200 202 204 205 206 206 209 212 215 219 222 225 227 227 227 232 236 238 243 245 247 247 246 252 253 243 242 252 258 257 252 247 247 250 251 254 255 254 254 252 252 252 252 253
258 133 156 181 168 138 179 264 45 356 85 60 5 321 274 270 269 254 233 226 225 213 204 197 195 199 199 192 190 193 181 172 179 176 171 173 174 179 185 190 194 196 198 199 200 201 202 202 202 201 200 202 202 201 203 205 204 204 205 204 207 212 213 218 223 227 230 230 234 238 239 245 248 248 250 251 254 255 249 250 255 258 258 256 255 259 262 261 262 259 255 253 250 249 251 257 259
242 208 179 181 165 135 95 146 132 11 24 109 17 335 290 238 234 250 236 217 223 216 198 195 198 196 186 171 172 180 172 165 171 177 174 174 180 188 193 196 196 196 198 200 201 201 202 203 203 202 201 202 204 203 201 201 200 198 197 195 198 203 206 209 211 214 222 226 228 232 238 244 246 246 248 252 258 258 253 251 251 253 254 254 257 261 262 262 265 264 262 258 252 248 251 258 263
250 214 253 221 155 121 103 134 131 59 299 256 104 39 290 244 215 237 226 201 215 200 184 200 207 198 192 204 210 197 187 173 167 177 175 173 182 190 195 199 200 201 202 202 203 203 202 203 203 202 201 201 202 202 200 198 196 194 194 195 197 199 204 210 212 212 216 222 226 230 233 233 234 238 242 248 258 261 258 252 248 250 252 252 254 254 253 256 263 267 267 261 255 254 254 256 258
243 228 284 99 115 116 130 157 151 114 213 285 90 160 266 310 274 244 194 177 205 187 197 219 214 208 207 214 220 205 203 203 181 192 200 178 179 181 187 195 200 204 205 202 201 200 200 201 201 200 200 199 199 199 199 198 196 196 196 199 203 205 209 216 222 223 224 228 232 236 239 235 234 239 243 248 254 261 263 260 258 259 259 257 256 257 262 267 269 267 262 259 260 261 257 254 257
244 285 334 101 115 130 148 156 171 154 130 357 13 158 248 303 290 256 145 156 208 200 218 232 219 209 199 194 201 185 175 168 161 181 204 205 196 185 186 195 200 205 205 203 201 197 196 196 195 196 195 196 196 196 198 198 198 198 198 201 206 210 213 215 217 223 229 231 230 233 238 235 236 240 244 248 249 254 259 260 263 265 265 266 264 268 271 269 269 266 261 261 262 262 258 257 262
233 285 336 92 123 141 150 145 158 98 75 328 266 189 247 267 259 247 134 168 230 224 220 220 208 193 178 169 162 148 139 129 140 171 188 199 205 201 196 191 191 196 198 199 198 194 192 190 189 189 190 192 193 194 196 197 199 200 201 203 205 207 209 206 204 212 222 221 217 220 221 219 222 229 235 242 244 247 252 259 264 267 269 272 271 272 271 269 270 268 263 261 260 260 259 259 263
208 200 53 53 69 91 126 146 129 87 76 238 222 188 197 275 255 216 181 210 230 233 224 201 182 164 151 142 134 131 136 136 155 182 164 150 163 172 170 165 171 181 189 194 196 194 190 187 185 183 185 189 190 192 194 195 197 200 201 203 202 203 204 201 201 207 209 205 205 213 219 222 225 228 234 242 247 249 251 255 260 263 267 271 272 271 271 274 275 269 263 262 261 262 263 262 263
147 145 85 59 41 41 40 80 96 87 252 239 215 188 170 278 263 199 189 226 219 214 194 144 133 133 131 125 136 149 150 154 167 165 133 121 133 157 157 156 169 181 186 190 193 193 190 187 184 182 183 188 189 189 193 193 192 193 197 199 199 200 198 194 200 210 212 210 213 217 220 228 233 233 236 244 250 252 252 252 255 260 262 266 269 269 271 278 280 276 271 267 264 265 267 265 263
110 131 115 79 27 30 24 1 61 117 244 259 301 325 134 226 257 224 207 226 182 154 159 155 149 143 139 132 134 135 130 148 156 144 135 134 142 159 155 148 154 162 168 174 178 181 182 182 180 177 177 183 185 184 187 188 184 182 188 191 190 189 189 192 201 212 220 220 228 237 240 252 260 255 256 263 267 268 267 261 256 259 266 270 271 272 274 280 284 283 282 281 279 278 275 270 267
19 144 126 109 83 60 64 257 188 207 246 262 298 335 259 233 251 256 257 234 180 147 131 154 156 143 138 139 132 127 130 141 142 138 141 147 151 155 148 141 144 148 150 156 162 166 168 171 172 169 167 171 175 175 176 178 176 175 177 180 180 180 185 195 199 204 215 223 244 271 273 288 307 303 302 310 312 310 309 298 278 269 270 270 270 271 272 275 278 278 278 280 285 289 287 282 278
212 167 138 139 145 125 201 204 195 222 264 285 278 291 262 271 266 247 250 245 185 140 108 120 134 137 141 144 139 138 136 121 116 119 118 120 132 138 137 135 136 138 140 144 149 156 160 164 166 162 159 161 163 164 166 169 170 171 170 172 175 179 185 190 190 191 198 201 212 227 235 257 277 297 313 321 321 318 320 319 309 298 289 281 276 274 271 272 275 277 280 282 284 286 289 289 286
207 186 144 166 174 158 186 183 181 201 230 314 298 272 194 214 254 230 225 212 101 106 105 106 112 126 130 129 141 145 131 116 105 100 98 99 106 114 119 123 126 129 134 138 141 149 156 162 165 161 157 159 160 160 162 163 165 166 165 163 165 172 177 175 174 180 187 191 201 211 221 238 250 262 272 272 272 273 277 281 284 289 292 293 298 300 297 292 287 285 288 292 294 293 292 291 290
225 172 117 203 213 143 140 176 175 158 105 291 247 247 217 207 246 226 156 96 92 98 107 121 125 133 133 139 160 151 130 121 111 100 94 89 94 103 108 112 118 122 127 131 135 141 147 152 155 154 150 150 152 152 152 153 156 156 155 156 160 166 166 162 167 179 189 199 213 232 246 257 263 266 269 273 279 282 282 282 280 281 281 282 289 302 310 313 308 300 293 291 291 293 294 292 290
199 137 160 212 186 114 117 240 226 113 160 228 187 250 277 283 278 228 153 139 142 142 154 164 160 153 150 160 162 142 127 121 112 106 102 90 90 96 100 106 113 119 122 124 128 132 138 143 144 141 140 140 143 146 147 150 153 154 156 162 167 171 168 165 170 178 188 205 217 252 261 269 277 284 291 301 311 317 316 313 309 306 303 299 291 285 289 298 302 303 301 297 294 291 290 289 289
111 150 199 202 71 81 118 194 357 80 229 237 173 211 247 237 270 272 142 178 212 196 192 186 172 164 166 167 153 138 128 116 106 102 102 97 96 96 98 102 108 116 121 123 124 127 131 137 140 139 138 140 144 147 148 152 156 157 158 161 161 160 159 159 159 152 139 128 119 110 105 96 45 9 5 6 12 15 11 3 356 344 333 328 324 317 308 300 297 302 305 304 302 299 295 292 293
124 181 206 114 138 245 158 184 199 160 212 264 227 220 227 202 216 215 180 208 218 208 200 190 183 180 176 165 149 138 126 118 116 114 109 102 103 103 104 105 106 113 118 119 123 126 127 132 137 137 136 138 143 145 146 147 149 148 146 144 141 138 139 139 134 130 123 116 109 102 97 90 74 60 51 46 43 40 36 31 23 13 0 352 349 347 345 338 328 321 318 317 315 313 308 304 302
46 16 32 75 160 184 170 197 201 154 186 258 259 231 246 232 209 196 204 211 203 196 197 197 194 187 176 162 155 149 143 145 140 130 124 109 105 107 109 111 110 111 113 115 119 121 122 127 131 132 132 134 137 140 140 139 138 136 134 132 130 128 128 128 125 119 112 105 100 94 90 84 76 68 62 58 54 49 46 43 38 32 24 18 14 10 5 358 351 343 336 331 328 325 322 320 318
167 120 144 174 184 119 122 250 210 150 175 229 244 258 264 251 218 204 204 200 197 193 189 197 193 179 174 162 157 159 154 156 148 132 129 115 110 109 112 114 114 113 114 115 117 117 118 122 125 127 129 129 129 131 132 132 131 131 129 127 126 123 121 120 116 110 104 99 95 91 88 83 78 74 69 65 60 55 52 48 44 40 34 29 24 20 17 11 6 1 354 347 341 336 332 329 327
174 181 185 189 178 130 132 255 228 167 178 194 191 251 274 269 284 259 179 128 142 186 174 182 183 168 168 163 160 163 158 154 145 133 127 119 116 116 117 117 116 116 116 116 118 119 119 120 122 125 125 124 125 127 128 128 128 127 124 121 120 117 115 113 110 106 102 98 95 91 89 85 81 76 71 67 61 56 52 48 44 39 34 30 24 20 18 15 10 6 2 358 352 346 341 337 333